Showing default

OPS 9328 (IDSCS 15), 2655

Orbit data source: Space-Track

OPS 9328 (IDSCS 15), 2655 is a payload satellite owned by USAF SSD (US) in GEO that was launched on Wed, 18 Jan 1967 UTC via a TITAN IIIC launch vehicle from the Air Force Eastern Test Range (AFETR). Payload-class satellites include a variety of spacecraft equipped with specific instruments for various scientific and technological missions. These include communications satellites like Starlink; space stations such as the ISS; scientific satellites like the Hubble; Earth observation satellites from companies like Planet Labs, Umbra, and HawkEye 360; GPS; miniature CubeSats for education and research; and military/defense satellites.

Not visible in the next 10 days
Identifier
2655, 1967-003H
Orbit
GEO
Country
Flag of USUS
Related business
Manufacturer
Philco-Ford WDL
Mission
Non-operational spacecraft
Bus & Motor
IDCSP, Unknown motor
Mass
45 kg wet, 45 kg dry
Launch date (UTC)
1967-01-18 (59 years ago)
Launch vehicle
TITAN IIIC
Launch site
Air Force Eastern Test Range (AFETR)
Object type
Payload
Rocket body
Debris
Shape & HBR
Unknown
Radar Cross Section
Medium (>0.1 m² and <1 m²)

Expand to show TLE details & history
Last TLE update: 1 day ago

TLE from 1 day ago
0 OPS 9328 (IDSCS 15)
1 02655U 67003H   25340.72903022 -.00000129  00000-0  00000-0 0  9996
2 02655   7.6833  49.6322 0071105  33.9501 340.1738  1.07230611137141
Epoch: 2025-12-06T17:29Z
TLE epoch observation values (Epoch: 2025-12-06T17:29:48.211Z)
Latitude
1.85419°
Longitude
85.14801°
Altitude
33,670.445 km
Speed
3.165 km/s
True Right ascension
04h 13m 24s
True Declination
1° 51' 08"
Sunlit
Object was in daylight at epoch
Visualization orbit readout
Latitude
Unknown
Longitude
Unknown
Altitude
Unknown
Speed
Unknown
Apparent Right ascension
Unknown
Apparent Declination
Unknown
Sunlit
N/A
Visualization observer readout
Local Sidereal Time
16:41:55
Azimuth
Unknown
Elevation
Unknown
Doppler factor
Unknown
Orbital elements
Apogee altitude
34,229.853 km
Perigee altitude
33,656.444 km
Semi-major axis
40,321.286 km
Eccentricity
0.00711
Inclination
7.6833°
RAAN
49.6322°
Arg. of periapsis
33.9501°
True anomaly
339.89512°
Mean anomaly
340.1738°
Eccentric anomaly
340.03469°
Mean motion
0.26807 °/min
Orbital period
1,342.95 mins
BSTAR
0
Loading maneuver chart data...
Computing Atmospheric mass density...
Loading historical data...
Loading historical data...
Loading historical data...
Loading historical data...
Loading historical data...
Loading historical data...
Loading historical data...

Documentation

Showing up to 5 results
|